| time (UTC) | temp F | wind direction | speed knots | gust knots | rain 1hr in | rain 24hr in | rain mn in | humidity % | barometer mb |
| 20260503231452 | 60 | 340 | 1.7 | 1.7 | 0.00 | 0.00 | 0.00 | 39 | 1016.4 |
| 20260503230948 | 60 | 341 | 0.0 | 0.0 | 0.00 | 0.00 | 0.00 | 40 | 1016.6 |
| 20260503230445 | 60 | 102 | 0.9 | 2.6 | 0.00 | 0.00 | 0.00 | 40 | 1016.5 |
| 20260503225943 | 60 | 91 | 1.7 | 2.6 | 0.00 | 0.00 | 0.00 | 40 | 1016.3 |
| 20260503225439 | 60 | 14 | 0.0 | 0.9 | 0.00 | 0.00 | 0.00 | 39 | 1016.5 |
| 20260503224935 | 60 | 351 | 0.9 | 1.7 | 0.00 | 0.00 | 0.00 | 39 | 1016.6 |
| 20260503224432 | 60 | 9 | 2.6 | 3.5 | 0.00 | 0.00 | 0.00 | 38 | 1016.7 |
| 20260503223930 | 60 | 19 | 0.0 | 1.7 | 0.00 | 0.00 | 0.00 | 39 | 1016.5 |
| 20260503223427 | 60 | 298 | 0.9 | 3.5 | 0.00 | 0.00 | 0.00 | 38 | 1017.1 |
| 20260503222922 | 61 | 151 | 2.6 | 3.5 | 0.00 | 0.00 | 0.00 | 37 | 1017.1 |
| 20260503222421 | 61 | 6 | 1.7 | 2.6 | 0.00 | 0.00 | 0.00 | 37 | 1017.1 |
| 20260503221919 | 61 | 278 | 0.0 | 1.7 | 0.00 | 0.00 | 0.00 | 37 | 1016.8 |
| 20260503221417 | 61 | 46 | 0.9 | 1.7 | 0.00 | 0.00 | 0.00 | 37 | 1017.1 |
| 20260503220914 | 61 | 305 | 0.9 | 6.1 | 0.00 | 0.00 | 0.00 | 38 | 1017.2 |
| 20260503220410 | 62 | 48 | 0.0 | 2.6 | 0.00 | 0.00 | 0.00 | 38 | 1017.3 |
| 20260503215908 | 62 | 350 | 0.9 | 1.7 | 0.00 | 0.00 | 0.00 | 37 | 1017.2 |
| 20260503215404 | 62 | 57 | 0.9 | 5.2 | 0.00 | 0.00 | 0.00 | 36 | 1017.2 |
| 20260503214902 | 62 | 206 | 0.9 | 0.9 | 0.00 | 0.00 | 0.00 | 38 | 1017.3 |
| 20260503214359 | 63 | 17 | 1.7 | 2.6 | 0.00 | 0.00 | 0.00 | 35 | 1017.1 |
| 20260503213856 | 64 | 4 | 0.0 | 1.7 | 0.00 | 0.00 | 0.00 | 37 | 1017.2 |
| 20260503213354 | 64 | 179 | 0.9 | 0.9 | 0.00 | 0.00 | 0.00 | 38 | 1017.2 |
| 20260503212850 | 63 | 352 | 0.0 | 1.7 | 0.00 | 0.00 | 0.00 | 35 | 1017.1 |
| 20260503212349 | 63 | 90 | 1.7 | 7.8 | 0.00 | 0.00 | 0.00 | 35 | 1017.2 |
| 20260503211845 | 64 | 61 | 2.6 | 2.6 | 0.00 | 0.00 | 0.00 | 35 | 1017.1 |
| 20260503211342 | 63 | 67 | 0.9 | 3.5 | 0.00 | 0.00 | 0.00 | 36 | 1017.3 |
| 20260503210837 | 63 | 90 | 1.7 | 3.5 | 0.00 | 0.00 | 0.00 | 36 | 1017.2 |
| 20260503210335 | 63 | 139 | 1.7 | 2.6 | 0.00 | 0.00 | 0.00 | 37 | 1017.2 |
| 20260503205830 | 63 | 90 | 0.9 | 2.6 | 0.00 | 0.00 | 0.00 | 36 | 1017.0 |
| 20260503205327 | 63 | 7 | 1.7 | 2.6 | 0.00 | 0.00 | 0.00 | 34 | 1017.3 |
| 20260503204823 | 64 | 1 | 1.7 | 3.5 | 0.00 | 0.00 | 0.00 | 35 | 1017.1 |
| 20260503204321 | 64 | 9 | 6.1 | 7.8 | 0.00 | 0.00 | 0.00 | 33 | 1017.2 |
| 20260503203818 | 64 | 343 | 0.9 | 0.9 | 0.00 | 0.00 | 0.00 | 37 | 1017.4 |
| 20260503203315 | 63 | 300 | 0.9 | 2.6 | 0.00 | 0.00 | 0.00 | 34 | 1017.3 |
| 20260503202812 | 63 | 17 | 2.6 | 5.2 | 0.00 | 0.00 | 0.00 | 35 | 1017.3 |
| 20260503202310 | 64 | 4 | 1.7 | 2.6 | 0.00 | 0.00 | 0.00 | 34 | 1017.5 |
| 20260503201808 | 64 | 271 | 0.9 | 3.5 | 0.00 | 0.00 | 0.00 | 35 | 1017.5 |
| 20260503201305 | 62 | 12 | 0.9 | 3.5 | 0.00 | 0.00 | 0.00 | 36 | 1017.6 |
| 20260503200802 | 61 | 109 | 1.7 | 5.2 | 0.00 | 0.00 | 0.00 | 35 | 1017.6 |
| 20260503200258 | 63 | 84 | 0.9 | 3.5 | 0.00 | 0.00 | 0.00 | 35 | 1018.0 |
| 20260503195755 | 62 | 167 | 1.7 | 7.0 | 0.00 | 0.00 | 0.00 | 35 | 1017.8 |
| 20260503195252 | 63 | 78 | 0.0 | 2.6 | 0.00 | 0.00 | 0.00 | 34 | 1017.9 |
| 20260503194749 | 63 | 28 | 2.6 | 2.6 | 0.00 | 0.00 | 0.00 | 36 | 1018.0 |
| 20260503194245 | 63 | 105 | 0.9 | 6.1 | 0.00 | 0.00 | 0.00 | 38 | 1018.2 |
| 20260503193741 | 62 | 324 | 2.6 | 3.5 | 0.00 | 0.00 | 0.00 | 36 | 1018.6 |
| 20260503193237 | 63 | 343 | 0.9 | 3.5 | 0.00 | 0.00 | 0.00 | 35 | 1018.6 |
| 20260503192733 | 64 | 79 | 0.9 | 0.9 | 0.00 | 0.00 | 0.00 | 38 | 1018.6 |
| 20260503192228 | 64 | 328 | 2.6 | 2.6 | 0.00 | 0.00 | 0.00 | 32 | 1018.5 |
| 20260503191726 | 64 | 126 | 0.9 | 1.7 | 0.00 | 0.00 | 0.00 | 35 | 1018.7 |
| 20260503191222 | 64 | 0 | 2.6 | 2.6 | 0.00 | 0.00 | 0.00 | 34 | 1018.8 |
| 20260503190720 | 64 | 316 | 0.9 | 2.6 | 0.00 | 0.00 | 0.00 | 37 | 1018.9 |
| 20260503190216 | 64 | 231 | 1.7 | 2.6 | 0.00 | 0.00 | 0.00 | 39 | 1018.9 |
| 20260503185714 | 64 | 167 | 1.7 | 5.2 | 0.00 | 0.00 | 0.00 | 35 | 1019.2 |
| 20260503185209 | 62 | 121 | 1.7 | 3.5 | 0.00 | 0.00 | 0.00 | 34 | 1019.2 |
| 20260503184703 | 62 | 30 | 0.0 | 2.6 | 0.00 | 0.00 | 0.00 | 35 | 1019.5 |
| 20260503184200 | 63 | 19 | 3.5 | 6.1 | 0.00 | 0.00 | 0.00 | 36 | 1019.4 |
| 20260503183656 | 62 | 341 | 1.7 | 1.7 | 0.00 | 0.00 | 0.00 | 36 | 1019.4 |
| 20260503183154 | 63 | 2 | 0.9 | 2.6 | 0.00 | 0.00 | 0.00 | 39 | 1019.6 |
| 20260503182652 | 64 | 181 | 0.9 | 2.6 | 0.00 | 0.00 | 0.00 | 33 | 1019.6 |
| 20260503182150 | 62 | 334 | 0.9 | 2.6 | 0.00 | 0.00 | 0.00 | 37 | 1019.7 |
| 20260503181646 | 62 | 173 | 3.5 | 5.2 | 0.00 | 0.00 | 0.00 | 35 | 1019.7 |
| 20260503181143 | 62 | 328 | 1.7 | 1.7 | 0.00 | 0.00 | 0.00 | 35 | 1019.9 |
| 20260503180640 | 59 | 348 | 1.7 | 1.7 | 0.00 | 0.00 | 0.00 | 37 | 1020.0 |
| 20260503180138 | 61 | 118 | 1.7 | 3.5 | 0.00 | 0.00 | 0.00 | 36 | 1020.0 |
| 20260503175635 | 61 | 85 | 1.7 | 3.5 | 0.00 | 0.00 | 0.00 | 36 | 1020.0 |
| 20260503175132 | 61 | 220 | 1.7 | 5.2 | 0.00 | 0.00 | 0.00 | 38 | 1020.2 |
| 20260503174629 | 61 | 124 | 0.9 | 1.7 | 0.00 | 0.00 | 0.00 | 38 | 1020.2 |
| 20260503174126 | 61 | 110 | 3.5 | 3.5 | 0.00 | 0.00 | 0.00 | 35 | 1020.4 |
| 20260503173621 | 62 | 321 | 0.9 | 1.7 | 0.00 | 0.00 | 0.00 | 43 | 1020.3 |
| 20260503173117 | 63 | 13 | 0.9 | 3.5 | 0.00 | 0.00 | 0.00 | 35 | 1020.5 |
| 20260503172614 | 62 | 281 | 0.9 | 2.6 | 0.00 | 0.00 | 0.00 | 39 | 1020.4 |
| 20260503172111 | 60 | 118 | 2.6 | 5.2 | 0.00 | 0.00 | 0.00 | 36 | 1020.7 |
| 20260503171603 | 61 | 262 | 0.9 | 5.2 | 0.00 | 0.00 | 0.00 | 39 | 1020.6 |
| 20260503171100 | 61 | 293 | 1.7 | 2.6 | 0.00 | 0.00 | 0.00 | 36 | 1020.8 |
| 20260503170556 | 61 | 335 | 1.7 | 3.5 | 0.00 | 0.00 | 0.00 | 36 | 1020.7 |
| 20260503150943 | 54 | 331 | 0.0 | 2.6 | 0.00 | 0.00 | 0.00 | 43 | 1022.0 |
| 20260503150439 | 54 | 16 | 1.7 | 5.2 | 0.00 | 0.00 | 0.00 | 42 | 1022.1 |
| 20260503131332 | 44 | 22 | 0.0 | 0.9 | 0.00 | 0.00 | 0.00 | 74 | 1022.3 |
| 20260503130830 | 42 | 12 | 1.7 | 1.7 | 0.00 | 0.00 | 0.00 | 75 | 1022.5 |
| 20260503130327 | 42 | 33 | 0.0 | 0.9 | 0.00 | 0.00 | 0.00 | 79 | 1022.6 |
| 20260503110721 | 29 | 8 | 0.0 | 0.0 | 0.00 | 0.00 | 0.00 | 99 | 1021.5 |
| 20260503110218 | 29 | 8 | 0.0 | 0.0 | 0.00 | 0.00 | 0.00 | 99 | 1021.5 |
| 20260503100144 | 29 | 7 | 0.0 | 0.0 | 0.00 | 0.00 | 0.00 | 99 | 1020.7 |
| 20260503081533 | 30 | 4 | 0.0 | 0.0 | 0.00 | 0.00 | 0.00 | 98 | 1020.7 |
| 20260503081030 | 30 | 4 | 0.0 | 0.0 | 0.00 | 0.00 | 0.00 | 98 | 1020.6 |
| 20260503080526 | 30 | 4 | 0.0 | 0.0 | 0.00 | 0.00 | 0.00 | 98 | 1020.7 |
| 20260503072500 | 30 | 357 | 0.0 | 0.0 | 0.00 | 0.00 | 0.00 | 98 | 1020.2 |
| 20260503071957 | 30 | 354 | 0.0 | 0.0 | 0.00 | 0.00 | 0.00 | 98 | 1020.3 |
| 20260503071454 | 30 | 354 | 0.0 | 0.0 | 0.00 | 0.00 | 0.00 | 98 | 1020.3 |
| 20260503070950 | 30 | 354 | 0.0 | 0.0 | 0.00 | 0.00 | 0.00 | 98 | 1020.4 |
| 20260503070447 | 31 | 354 | 0.0 | 0.0 | 0.00 | 0.00 | 0.00 | 98 | 1020.4 |
| 20260503054900 | 32 | 354 | 0.0 | 0.0 | 0.00 | 0.00 | 0.00 | 97 | 1020.6 |
| 20260503054356 | 32 | 354 | 0.0 | 0.0 | 0.00 | 0.00 | 0.00 | 97 | 1020.6 |
| 20260503053854 | 32 | 355 | 0.0 | 0.0 | 0.00 | 0.00 | 0.00 | 97 | 1020.7 |
| 20260503053352 | 33 | 355 | 0.0 | 0.0 | 0.00 | 0.00 | 0.00 | 97 | 1020.4 |
| 20260503052848 | 33 | 355 | 0.0 | 0.0 | 0.00 | 0.00 | 0.00 | 97 | 1020.8 |
| 20260503052345 | 33 | 355 | 0.0 | 0.0 | 0.00 | 0.00 | 0.00 | 96 | 1020.6 |
| 20260503051841 | 33 | 355 | 0.0 | 0.0 | 0.00 | 0.00 | 0.00 | 96 | 1020.6 |
| 20260503051338 | 33 | 355 | 0.0 | 0.0 | 0.00 | 0.00 | 0.00 | 96 | 1020.6 |
| 20260503050835 | 33 | 355 | 0.0 | 0.0 | 0.00 | 0.00 | 0.00 | 96 | 1020.6 |
| 20260503050331 | 33 | 354 | 0.0 | 0.0 | 0.00 | 0.00 | 0.00 | 96 | 1020.5 |
| 20260503045829 | 33 | 354 | 0.0 | 0.0 | 0.00 | 0.00 | 0.00 | 96 | 1020.7 |
| 20260503045326 | 34 | 354 | 0.0 | 0.0 | 0.00 | 0.00 | 0.00 | 96 | 1020.6 |
| 20260503044823 | 34 | 354 | 0.0 | 0.0 | 0.00 | 0.00 | 0.00 | 96 | 1020.7 |
| 20260503044320 | 34 | 354 | 0.0 | 0.0 | 0.00 | 0.00 | 0.00 | 95 | 1020.6 |
| 20260503043817 | 34 | 354 | 0.0 | 0.0 | 0.00 | 0.00 | 0.00 | 95 | 1020.7 |
| 20260503043314 | 34 | 354 | 0.0 | 0.0 | 0.00 | 0.00 | 0.00 | 95 | 1020.6 |
| 20260503042809 | 35 | 355 | 0.0 | 0.0 | 0.00 | 0.00 | 0.00 | 95 | 1020.5 |
| 20260503042307 | 35 | 355 | 0.0 | 0.0 | 0.00 | 0.00 | 0.00 | 94 | 1020.4 |
| 20260503041802 | 35 | 355 | 0.0 | 0.0 | 0.00 | 0.00 | 0.00 | 94 | 1020.4 |
| 20260503041300 | 35 | 354 | 0.0 | 0.0 | 0.00 | 0.00 | 0.00 | 94 | 1020.5 |
| 20260503040758 | 35 | 354 | 0.0 | 0.0 | 0.00 | 0.00 | 0.00 | 94 | 1020.4 |
| 20260503040255 | 35 | 354 | 0.0 | 0.0 | 0.00 | 0.00 | 0.00 | 94 | 1020.5 |
| 20260503035752 | 36 | 354 | 0.0 | 0.0 | 0.00 | 0.01 | 0.01 | 94 | 1020.5 |
| 20260503035249 | 36 | 354 | 0.0 | 0.0 | 0.00 | 0.01 | 0.01 | 93 | 1020.5 |
| 20260503034746 | 36 | 354 | 0.0 | 0.0 | 0.00 | 0.01 | 0.01 | 93 | 1020.4 |
| 20260503034243 | 36 | 354 | 0.0 | 0.0 | 0.00 | 0.01 | 0.01 | 92 | 1020.5 |
| 20260503033741 | 37 | 354 | 0.0 | 0.0 | 0.00 | 0.01 | 0.01 | 92 | 1020.5 |
| 20260503033238 | 37 | 354 | 0.0 | 0.0 | 0.00 | 0.01 | 0.01 | 91 | 1020.4 |
| 20260503032736 | 37 | 354 | 0.0 | 0.0 | 0.00 | 0.01 | 0.01 | 91 | 1020.2 |
| 20260503032235 | 38 | 354 | 0.0 | 0.0 | 0.00 | 0.01 | 0.01 | 90 | 1020.4 |
| 20260503031731 | 38 | 354 | 0.0 | 0.0 | 0.00 | 0.01 | 0.01 | 89 | 1020.5 |
| 20260503031229 | 38 | 354 | 0.0 | 0.0 | 0.00 | 0.01 | 0.01 | 89 | 1020.6 |
| 20260503030725 | 38 | 354 | 0.0 | 0.0 | 0.00 | 0.01 | 0.01 | 88 | 1020.6 |
| 20260503030222 | 39 | 354 | 0.0 | 0.0 | 0.00 | 0.01 | 0.01 | 87 | 1020.5 |
| 20260503025719 | 39 | 354 | 0.0 | 0.0 | 0.00 | 0.01 | 0.01 | 87 | 1020.5 |
| 20260503025217 | 39 | 354 | 0.0 | 0.0 | 0.00 | 0.01 | 0.01 | 87 | 1020.6 |
| 20260503024713 | 39 | 354 | 0.0 | 0.0 | 0.00 | 0.01 | 0.01 | 86 | 1020.4 |
| 20260503024210 | 39 | 354 | 0.0 | 0.0 | 0.00 | 0.01 | 0.01 | 86 | 1020.4 |
| 20260503023707 | 39 | 354 | 0.0 | 0.0 | 0.00 | 0.01 | 0.01 | 86 | 1020.4 |
| 20260503023204 | 39 | 354 | 0.0 | 0.0 | 0.00 | 0.01 | 0.01 | 86 | 1020.5 |
| 20260503022700 | 39 | 354 | 0.0 | 0.0 | 0.00 | 0.01 | 0.01 | 86 | 1020.3 |
| 20260503022159 | 39 | 354 | 0.0 | 0.0 | 0.00 | 0.01 | 0.01 | 86 | 1020.5 |
| 20260503021656 | 39 | 354 | 0.0 | 0.0 | 0.00 | 0.01 | 0.01 | 85 | 1020.4 |
| 20260503021153 | 39 | 354 | 0.0 | 0.0 | 0.00 | 0.01 | 0.01 | 84 | 1020.3 |
| 20260503020650 | 39 | 354 | 0.0 | 0.0 | 0.00 | 0.01 | 0.01 | 83 | 1020.1 |
| 20260503020148 | 39 | 354 | 0.0 | 0.0 | 0.00 | 0.01 | 0.01 | 82 | 1020.3 |
| 20260503015644 | 40 | 354 | 0.0 | 0.0 | 0.00 | 0.01 | 0.01 | 82 | 1020.1 |
| 20260503015141 | 40 | 354 | 0.0 | 0.0 | 0.00 | 0.01 | 0.01 | 81 | 1020.0 |
| 20260503014637 | 40 | 354 | 0.0 | 0.0 | 0.00 | 0.01 | 0.01 | 81 | 1020.0 |
| 20260503014135 | 40 | 354 | 0.0 | 0.0 | 0.00 | 0.01 | 0.01 | 81 | 1020.0 |
| 20260503013632 | 41 | 354 | 0.0 | 0.0 | 0.00 | 0.01 | 0.01 | 80 | 1020.0 |
| 20260503013130 | 41 | 354 | 0.0 | 0.0 | 0.00 | 0.01 | 0.01 | 79 | 1019.9 |
| 20260503012627 | 41 | 354 | 0.0 | 0.0 | 0.00 | 0.01 | 0.01 | 78 | 1019.7 |
| 20260503012124 | 41 | 354 | 0.0 | 0.0 | 0.00 | 0.01 | 0.01 | 77 | 1019.7 |
| 20260503011620 | 41 | 354 | 0.0 | 0.0 | 0.00 | 0.01 | 0.01 | 76 | 1019.7 |
| 20260503011118 | 42 | 354 | 0.0 | 0.0 | 0.00 | 0.01 | 0.01 | 76 | 1019.7 |
| 20260503010614 | 42 | 354 | 0.0 | 0.0 | 0.00 | 0.01 | 0.01 | 74 | 1019.8 |
| 20260503010111 | 42 | 354 | 0.0 | 0.0 | 0.00 | 0.01 | 0.01 | 73 | 1019.8 |
| 20260503005608 | 42 | 354 | 0.0 | 0.0 | 0.00 | 0.01 | 0.01 | 73 | 1019.9 |
| 20260503005106 | 43 | 354 | 0.0 | 0.0 | 0.00 | 0.01 | 0.01 | 72 | 1019.7 |
| 20260503004601 | 43 | 354 | 0.0 | 0.0 | 0.00 | 0.01 | 0.01 | 71 | 1019.8 |
| 20260503004100 | 44 | 354 | 0.0 | 0.0 | 0.00 | 0.01 | 0.01 | 69 | 1019.7 |
| 20260503003556 | 44 | 354 | 0.0 | 0.0 | 0.00 | 0.01 | 0.01 | 69 | 1019.6 |
| 20260503003053 | 45 | 352 | 0.0 | 0.0 | 0.00 | 0.01 | 0.01 | 66 | 1019.6 |
| 20260503002550 | 45 | 352 | 0.0 | 0.0 | 0.00 | 0.01 | 0.01 | 65 | 1019.4 |
| 20260503002047 | 46 | 352 | 0.0 | 0.0 | 0.00 | 0.01 | 0.01 | 67 | 1019.4 |
| 20260503001543 | 46 | 0 | 0.0 | 0.0 | 0.00 | 0.01 | 0.01 | 66 | 1019.5 |
| 20260503001041 | 46 | 1 | 0.0 | 0.0 | 0.00 | 0.01 | 0.01 | 64 | 1019.4 |
| 20260503000538 | 47 | 350 | 0.0 | 0.0 | 0.00 | 0.01 | 0.01 | 60 | 1019.3 |
| 20260503000035 | 47 | 317 | 0.0 | 0.0 | 0.00 | 0.01 | 0.01 | 61 | 1019.3 |
| 20260502235531 | 47 | 352 | 0.0 | 0.9 | 0.00 | 0.01 | 0.01 | 63 | 1019.1 |
| 20260502235030 | 48 | 353 | 0.0 | 0.9 | 0.00 | 0.01 | 0.01 | 58 | 1019.1 |
| 20260502234525 | 48 | 1 | 0.0 | 0.9 | 0.00 | 0.01 | 0.01 | 56 | 1019.2 |
| 20260502234023 | 48 | 5 | 0.0 | 0.0 | 0.00 | 0.01 | 0.01 | 59 | 1019.1 |
| 20260502233523 | 48 | 335 | 0.0 | 1.7 | 0.00 | 0.01 | 0.01 | 61 | 1019.0 |
| 20260502233021 | 48 | 4 | 0.0 | 0.0 | 0.00 | 0.01 | 0.01 | 57 | 1018.8 |
| 20260502232517 | 49 | 348 | 0.0 | 0.9 | 0.00 | 0.01 | 0.01 | 57 | 1018.9 |
| 20260502232014 | 49 | 354 | 0.0 | 0.0 | 0.00 | 0.01 | 0.01 | 53 | 1018.8 |